CW5022 Weather Reports


Display with metric or nautical units.
time (UTC)temp
F
wind
direction
speed
MPH
gust
MPH
rain 1hr
in
rain 24hr
in
rain mn
in
humidity
%
barometer
mb
20260505061705 61 233 0.0 6.0 0.00 0.00 0.00 77 1009.7
20260505061204 61 262 0.0 0.0 0.00 0.00 0.00 76 1009.7
20260505060706 61 262 0.0 0.0 0.00 0.00 0.00 76 1009.6
20260505060204 62 262 0.0 2.0 0.00 0.00 0.00 75 1009.5
20260505055704 62 261 0.0 2.0 0.00 0.00 0.00 75 1009.5
20260505055204 62 268 0.0 2.0 0.00 0.00 0.00 74 1009.5
20260505054704 63 268 0.0 2.0 0.00 0.00 0.00 74 1009.4
20260505054204 63 268 0.0 2.0 0.00 0.00 0.00 73 1009.4
20260505053204 63 268 0.0 2.0 0.00 0.00 0.00 72 1009.2
20260505052704 64 268 1.0 2.0 0.00 0.00 0.00 72 1009.2
20260505052204 64 268 1.0 2.0 0.00 0.00 0.00 71 1009.2
20260505051704 64 267 0.0 2.0 0.00 0.00 0.00 71 1009.1
20260505051203 65 264 1.0 5.0 0.00 0.00 0.00 70 1009.0
20260505050704 65 128 0.0 2.0 0.00 0.00 0.00 70 1009.0
20260505050204 65 97 1.0 2.0 0.00 0.00 0.00 69 1008.9
20260505041704 69 279 0.0 2.0 0.00 0.00 0.00 65 1008.5
20260505041203 69 279 0.0 2.0 0.00 0.00 0.00 64 1008.4
20260505040704 69 279 0.0 2.0 0.00 0.00 0.00 63 1008.3
20260505035704 70 279 0.0 2.0 0.00 0.00 0.00 62 1008.1
20260505034703 71 279 0.0 2.0 0.00 0.00 0.00 62 1008.0
20260505033704 71 279 0.0 0.0 0.00 0.00 0.00 60 1007.8
20260505033204 72 279 0.0 2.0 0.00 0.00 0.00 60 1007.7
20260505032704 72 281 0.0 0.0 0.00 0.00 0.00 59 1007.7
20260505032204 73 281 0.0 2.0 0.00 0.00 0.00 58 1007.6
20260505031703 73 288 0.0 2.0 0.00 0.00 0.00 57 1007.5
20260505031204 73 270 0.0 2.0 0.00 0.00 0.00 57 1007.4
20260505030703 74 269 0.0 0.0 0.00 0.00 0.00 56 1007.4
20260505030204 74 269 0.0 0.0 0.00 0.00 0.00 55 1007.3
20260505025704 74 269 0.0 2.0 0.00 0.00 0.00 54 1007.3
20260505024704 75 275 0.0 2.0 0.00 0.00 0.00 53 1007.2
20260505024204 76 267 0.0 2.0 0.00 0.00 0.00 52 1007.1
20260505023703 76 258 2.0 5.0 0.00 0.00 0.00 51 1007.0
20260505023204 77 260 2.0 6.0 0.00 0.00 0.00 50 1007.0
20260505022204 77 266 0.0 5.0 0.00 0.00 0.00 49 1007.0
20260505021704 77 249 4.0 6.0 0.00 0.00 0.00 48 1007.1
20260505021204 78 278 0.0 2.0 0.00 0.00 0.00 47 1007.1
20260505020704 78 278 2.0 5.0 0.00 0.00 0.00 45 1007.1
20260505020204 78 269 3.0 2.0 0.00 0.00 0.00 44 1007.1
20260505015704 79 273 0.0 2.0 0.00 0.00 0.00 43 1007.1
20260505014704 78 261 0.0 5.0 0.00 0.00 0.00 43 1007.1
20260505014204 78 266 2.0 5.0 0.00 0.00 0.00 42 1007.2
20260505013704 78 324 0.0 0.0 0.00 0.00 0.00 43 1007.2
20260505013204 78 287 0.0 0.0 0.00 0.00 0.00 43 1007.1
20260505011704 78 259 1.0 2.0 0.00 0.00 0.00 43 1007.2
20260505011203 78 126 0.0 1.0 0.00 0.00 0.00 42 1007.2
20260505010204 78 244 0.0 2.0 0.00 0.00 0.00 41 1007.3
20260505005705 78 131 1.0 2.0 0.00 0.00 0.00 41 1007.3
20260505005204 79 128 1.0 5.0 0.00 0.00 0.00 40 1007.3
20260505004704 78 261 2.0 5.0 0.00 0.00 0.00 40 1007.3
20260505004204 78 155 1.0 2.0 0.00 0.00 0.00 40 1007.3
20260505003204 79 134 2.0 5.0 0.00 0.00 0.00 39 1007.4
20260505002204 79 58 0.0 2.0 0.00 0.00 0.00 37 1007.4
20260505001705 79 278 0.0 6.0 0.00 0.00 0.00 38 1007.4
20260505001203 78 262 3.0 6.0 0.00 0.00 0.00 38 1007.5
20260505000204 78 137 0.0 5.0 0.00 0.00 0.00 37 1007.4
20260504235704 79 78 1.0 5.0 0.00 0.00 0.00 37 1007.5
20260504235205 79 218 1.0 5.0 0.00 0.00 0.00 36 1007.6
20260504234704 79 276 1.0 5.0 0.00 0.00 0.00 35 1007.6
20260504234204 79 240 0.0 2.0 0.00 0.00 0.00 36 1007.7
20260504233704 79 154 3.0 5.0 0.00 0.00 0.00 36 1007.7
20260504233204 79 281 2.0 6.0 0.00 0.00 0.00 35 1007.7
20260504232704 79 266 0.0 5.0 0.00 0.00 0.00 36 1007.7
20260504231703 78 276 3.0 5.0 0.00 0.00 0.00 35 1007.8
20260504230704 78 264 5.0 5.0 0.00 0.00 0.00 35 1007.7
20260504230204 78 261 1.0 2.0 0.00 0.00 0.00 35 1007.7
20260504225704 79 270 1.0 5.0 0.00 0.00 0.00 35 1007.8
20260504225205 79 148 0.0 5.0 0.00 0.00 0.00 38 1007.8
20260504224704 78 109 1.0 1.0 0.00 0.00 0.00 38 1007.9
20260504224204 78 104 1.0 5.0 0.00 0.00 0.00 38 1008.0
20260504223704 78 85 0.0 2.0 0.00 0.00 0.00 39 1008.1
20260504222703 78 265 0.0 2.0 0.00 0.00 0.00 38 1008.2
20260504221704 78 291 0.0 5.0 0.00 0.00 0.00 40 1008.4
20260504221204 77 249 1.0 5.0 0.00 0.00 0.00 38 1008.5
20260504220704 77 294 2.0 6.0 0.00 0.00 0.00 40 1008.5
20260504220203 77 266 1.0 10.0 0.00 0.00 0.00 40 1008.5
20260504215704 78 185 1.0 2.0 0.00 0.00 0.00 42 1008.6
20260504215204 78 275 3.0 5.0 0.00 0.00 0.00 42 1008.6
20260504214703 77 129 3.0 5.0 0.00 0.00 0.00 42 1008.6
20260504214204 77 248 1.0 2.0 0.00 0.00 0.00 44 1008.6
20260504213704 77 256 2.0 5.0 0.00 0.00 0.00 43 1008.6
20260504213204 77 261 2.0 8.0 0.00 0.00 0.00 43 1008.7
20260504212705 77 205 1.0 5.0 0.00 0.00 0.00 44 1008.7
20260504212204 77 279 5.0 6.0 0.00 0.00 0.00 43 1008.7
20260504211705 77 262 5.0 6.0 0.00 0.00 0.00 43 1008.7
20260504211203 77 254 1.0 5.0 0.00 0.00 0.00 43 1008.7
20260504210703 77 251 5.0 5.0 0.00 0.00 0.00 40 1008.7
20260504210204 77 260 1.0 6.0 0.00 0.00 0.00 43 1008.7
20260504205704 78 288 2.0 2.0 0.00 0.00 0.00 41 1008.8
20260504205204 78 258 2.0 5.0 0.00 0.00 0.00 40 1008.8
20260504204704 78 252 3.0 5.0 0.00 0.00 0.00 39 1008.8
20260504204204 78 263 2.0 2.0 0.00 0.00 0.00 38 1008.9
20260504203704 78 203 2.0 2.0 0.00 0.00 0.00 41 1008.8
20260504203204 78 283 2.0 5.0 0.00 0.00 0.00 41 1008.8
20260504202704 78 251 0.0 5.0 0.00 0.00 0.00 41 1008.9
20260504202205 79 276 1.0 5.0 0.00 0.00 0.00 41 1008.9
20260504201705 80 266 1.0 2.0 0.00 0.00 0.00 42 1008.9
20260504201204 79 124 0.0 2.0 0.00 0.00 0.00 42 1008.9
20260504200705 78 211 1.0 2.0 0.00 0.00 0.00 44 1008.9
20260504200204 77 244 1.0 2.0 0.00 0.00 0.00 44 1009.0
20260504195703 77 255 3.0 5.0 0.00 0.00 0.00 43 1009.0
20260504195204 77 264 1.0 5.0 0.00 0.00 0.00 43 1008.9
20260504194703 77 106 1.0 5.0 0.00 0.00 0.00 45 1008.9
20260504194204 77 170 1.0 5.0 0.00 0.00 0.00 45 1009.0
20260504193703 76 281 4.0 6.0 0.00 0.00 0.00 43 1008.9
20260504192703 77 259 2.0 5.0 0.00 0.00 0.00 40 1009.1
20260504192203 78 246 1.0 2.0 0.00 0.00 0.00 39 1009.2
20260504191203 78 153 1.0 2.0 0.00 0.00 0.00 42 1009.2
20260504190703 78 122 2.0 5.0 0.00 0.00 0.00 44 1009.2
20260504190204 77 122 1.0 6.0 0.00 0.00 0.00 44 1009.2
20260504185703 76 110 3.0 7.0 0.00 0.00 0.00 45 1009.3
20260504185204 76 266 1.0 5.0 0.00 0.00 0.00 44 1009.3
20260504184704 76 223 2.0 5.0 0.00 0.00 0.00 43 1009.4
20260504184204 76 263 3.0 5.0 0.00 0.00 0.00 43 1009.3
20260504183704 76 260 2.0 5.0 0.00 0.00 0.00 44 1009.3
20260504183204 75 276 0.0 5.0 0.00 0.00 0.00 45 1009.4
20260504182704 75 282 5.0 6.0 0.00 0.00 0.00 44 1009.4
20260504182204 74 123 1.0 5.0 0.00 0.00 0.00 46 1009.3
20260504181704 74 279 1.0 2.0 0.00 0.00 0.00 46 1009.4
20260504181204 74 153 0.0 2.0 0.00 0.00 0.00 48 1009.4
20260504180704 73 267 2.0 5.0 0.00 0.00 0.00 47 1009.4
20260504180204 74 259 3.0 5.0 0.00 0.00 0.00 49 1009.4
20260504175704 74 266 0.0 2.0 0.00 0.00 0.00 49 1009.4
20260504175204 73 134 2.0 6.0 0.00 0.00 0.00 51 1009.5
20260504174704 74 267 1.0 2.0 0.00 0.00 0.00 48 1009.5
20260504174204 73 225 0.0 0.0 0.00 0.00 0.00 52 1009.4
20260504173704 72 257 0.0 2.0 0.00 0.00 0.00 54 1009.5
20260504173203 71 257 2.0 5.0 0.00 0.00 0.00 53 1009.4
20260504172704 71 283 1.0 5.0 0.00 0.00 0.00 54 1009.4
20260504172205 71 270 1.0 2.0 0.00 0.00 0.00 53 1009.5
20260504171204 70 261 3.0 5.0 0.00 0.00 0.00 53 1009.4
20260504170204 70 275 2.0 2.0 0.00 0.00 0.00 56 1009.5
20260504160204 68 263 3.0 5.0 0.00 0.00 0.00 64 1009.2
20260504150704 59 277 0.0 0.0 0.00 0.00 0.00 80 1008.8
20260504150204 59 277 0.0 2.0 0.00 0.00 0.00 80 1008.8
20260504141204 53 304 0.0 0.0 0.00 0.00 0.00 91 1008.6
20260504140704 53 304 0.0 0.0 0.00 0.00 0.00 92 1008.6
20260504130704 51 304 0.0 0.0 0.00 0.00 0.00 91 1008.0
20260504130204 51 304 0.0 0.0 0.00 0.00 0.00 91 1007.9
20260504120204 52 304 0.0 0.0 0.00 0.00 0.00 90 1007.9
20260504110704 53 304 0.0 0.0 0.00 0.00 0.00 87 1007.8
20260504100204 55 304 0.0 0.0 0.00 0.00 0.00 84 1007.7
20260504081704 57 304 0.0 0.0 0.00 0.00 0.00 80 1007.6
20260504080703 57 304 0.0 0.0 0.00 0.00 0.00 80 1007.5
20260504070204 59 304 0.0 0.0 0.00 0.00 0.00 73 1007.6